Regional Weather Roundup
Issued by NWS

Home | Current Version | Previous Version | Text Only | Print | Product List | Glossary Off
Versions: 1 2 3 4 5 6 7 8 9 10 11 12 13 14 15 16 17 18 19 20 21 22 23 24 25 26 27 28 29 30 31 32 33 34 35 36 37 38 39 40 41 42 43 44 45 46 47 48 49 50

000
ASUS43 KIND 241609
RWRIN

WEATHER ROUNDUP FOR INDIANA
NATIONAL WEATHER SERVICE INDIANAPOLIS IN
1200 PM EDT FRI OCT 24 2014

NOTE: "FAIR" INDICATES FEW OR NO CLOUDS BELOW 12,000 FEET WITH NO
SIGNIFICANT WEATHER AND/OR OBSTRUCTIONS TO VISIBILITY.

* - STATION DOES NOT REPORT WEATHER SUCH AS PRECIPITATION OR FOG.

+ - STATION NOT QUALITY CONTROLLED BY THE NATIONAL WEATHER SERVICE.
    USE DATA WITH CAUTION...ESPECIALLY DEWPOINT AND RELATIVE
    HUMIDITY OBSERVATIONS.

INZ001>003-010>013-019-020-241700-
NORTHWEST INDIANA

CITY           SKY/WX    TMP DP  RH WIND       PRES   REMARKS
GARY /AIRPORT/ PTSUNNY   59  48  67 CALM      30.07S
KNOX *+        CLOUDY    55  47  74 SW5       30.07S
LA PORTE +     MOSUNNY   58  50  72 SW5       30.07F
MONTICELLO +   CLOUDY    57  50  76 CALM      30.07F HAZE
RENSSELAER +   SUNNY     59  52  77 SW5       30.08F
VALPARAISO     MOSUNNY   57  47  69 SW5       30.07F

$$

LMZ046-743>745-241700-
SOUTHERN LAKE MICHIGAN

STATION/POSITION TIME  TEMP WIND        PRES
                       AIR  DIR/SP/G
                 (UTC) (F)  (DEG/KT/KT) (MB)
MICHIGAN CITY    1600   55  240/  3/  4   N/A

$$

INZ004-005-014>016-021>024-241700-
NORTH CENTRAL INDIANA

CITY           SKY/WX    TMP DP  RH WIND       PRES   REMARKS
ELKHART        CLOUDY    55  46  71 S3        30.07F
GOSHEN         CLOUDY    55  48  77 SW6       30.08S
LOGANSPORT +   PTSUNNY   55  50  82 SW6       30.10F
PERU/GRISSOM   MOSUNNY   56  56 100 SW7       30.09S
SOUTH BEND     CLOUDY    56  47  71 SW3       30.08F
WARSAW +       CLOUDY    54  50  87 W7        30.09S

$$

INZ006>009-017-018-025>027-241700-
NORTHEAST INDIANA

CITY           SKY/WX    TMP DP  RH WIND       PRES   REMARKS
ANGOLA *+      CLOUDY    54  46  76 W3        30.07F
AUBURN +       CLOUDY    52  45  76 SW3       30.09F
FORT WAYNE     PTSUNNY   54  46  74 SW5       30.10F

$$

INZ028-029-035-036-043>045-051>053-241700-
WEST CENTRAL INDIANA

CITY           SKY/WX    TMP DP  RH WIND       PRES   REMARKS
GREENCASTLE +  MOSUNNY   55  46  71 SW3       30.11F
LAFAYETTE      PTSUNNY   58  49  72 SW5       30.09F
TERRE HAUTE    MOSUNNY   58  48  69 SW3       30.11F

$$

INZ030>032-037>040-046>048-054>057-064-065-241700-
CENTRAL INDIANA

CITY           SKY/WX    TMP DP  RH WIND       PRES   REMARKS
ANDERSON       SUNNY     57  41  54 W7        30.11F
CP ATTERBURY + MOSUNNY   61  43  51 SW6       30.11F
COLUMBUS       SUNNY     57  46  67 S7        30.12F
FRANKFORT +    MOSUNNY   59  50  71 SW7       30.11S
INDIANAPOLIS   PTSUNNY   54  45  71 SW9       30.10F
-EAGLE CREEK   PTSUNNY   55  46  71 S6        30.10S
KOKOMO *+      MOSUNNY   59  48  67 S7        30.09F
MT COMFORT *+  MOSUNNY   57  36  44 SW5       30.11S
SHELBYVILLE    NOT AVBL
ZIONSVILLE +   CLOUDY    55  46  72 SW5       30.11S

$$

INZ033-034-041-042-049-050-058-059-241700-
EAST CENTRAL INDIANA

CITY           SKY/WX    TMP DP  RH WIND       PRES   REMARKS
MUNCIE         CLOUDY    59  43  55 SW8       30.09F

$$

INZ060-061-067>069-081>083-085>088-241700-
SOUTHWEST INDIANA

CITY           SKY/WX    TMP DP  RH WIND       PRES   REMARKS
EVANSVILLE     MOSUNNY   59  47  64 CALM      30.13F
HUNTINGBURG *+ CLOUDY    55  46  71 SW5       30.14F

$$

INZ062-063-066-070>080-084-089>092-241700-
SOUTH CENTRAL AND SOUTHEAST INDIANA

CITY           SKY/WX    TMP DP  RH WIND       PRES   REMARKS
BEDFORD +      CLOUDY    54  45  71 CALM      30.13S
BLOOMINGTON    CLOUDY    56  46  69 SW6       30.12S
SEYMOUR +      SUNNY     61  43  51 S3        30.12F

$$




USA.gov is the U.S. government's official web portal to all federal, state and local government web resources and services.